Time,TemperatureF,DewpointF,PressureIn,WindDirection,WindDirectionDegrees,WindSpeedMPH,WindSpeedGustMPH,Humidity,HourlyPrecipIn,Conditions,Clouds,dailyrainin,SoftwareType,DateUTC
2014-01-11 00:43:00,38.5,36.3,29.62,North,0,0.0,0.0,92,0.00,,,0.00,WUHU21623XXSP,2014-01-11 05:43:00,
2014-01-11 00:44:00,38.5,36.3,29.61,North,0,0.0,0.0,92,0.00,,,0.00,WUHU21623XXSP,2014-01-11 05:44:00,
2014-01-11 00:45:00,38.5,36.3,29.61,SSE,157,0.0,0.0,92,0.00,,,0.00,WUHU21623XXSP,2014-01-11 05:45:00,
2014-01-11 00:50:00,38.5,36.3,29.61,SSE,157,0.0,0.0,92,0.00,,,0.00,WUHU21623XXSP,2014-01-11 05:50:00,
2014-01-11 00:55:00,38.5,36.3,29.60,SSE,157,0.0,0.0,92,0.00,,,0.00,WUHU21623XXSP,2014-01-11 05:55:00,
2014-01-11 01:00:00,38.5,36.3,29.60,SSE,157,0.0,0.0,92,0.00,,,0.00,WUHU21623XXSP,2014-01-11 06:00:00,
2014-01-11 01:05:00,38.5,36.3,29.60,SSE,157,0.0,0.0,92,0.00,,,0.00,WUHU21623XXSP,2014-01-11 06:05:00,
2014-01-11 01:10:00,38.5,36.3,29.60,SSE,157,0.0,0.0,92,0.00,,,0.00,WUHU21623XXSP,2014-01-11 06:10:00,
2014-01-11 01:11:00,38.5,36.3,29.60,North,0,0.0,0.0,92,0.00,,,0.00,WUHU21623XXSP,2014-01-11 06:11:00,
2014-01-11 01:15:00,38.5,36.3,29.60,SSE,157,0.0,0.0,92,0.00,,,0.00,WUHU21623XXSP,2014-01-11 06:15:00,
2014-01-11 01:20:00,38.5,36.3,29.60,North,0,0.0,0.0,92,0.00,,,0.00,WUHU21623XXSP,2014-01-11 06:20:00,
2014-01-11 06:56:00,36.1,34.0,29.48,North,0,0.0,0.0,92,0.00,,,0.00,WUHU21623XXSP,2014-01-11 11:56:00,
2014-01-11 07:01:00,36.1,34.0,29.47,South,180,0.0,0.0,92,0.00,,,0.00,WUHU21623XXSP,2014-01-11 12:01:00,
2014-01-11 07:06:00,36.3,34.2,29.48,South,180,0.0,0.0,92,0.00,,,0.00,WUHU21623XXSP,2014-01-11 12:06:00,
2014-01-11 07:11:00,36.3,34.2,29.48,South,180,0.0,0.0,92,0.00,,,0.00,WUHU21623XXSP,2014-01-11 12:11:00,
2014-01-11 07:16:00,36.3,34.2,29.48,South,180,0.0,0.0,92,0.00,,,0.00,WUHU21623XXSP,2014-01-11 12:16:00,
2014-01-11 07:21:00,36.3,34.2,29.48,South,180,0.0,0.0,92,0.00,,,0.00,WUHU21623XXSP,2014-01-11 12:21:00,
2014-01-11 07:24:00,36.3,34.2,29.47,North,0,0.0,0.0,92,0.00,,,0.00,WUHU21623XXSP,2014-01-11 12:24:00,
2014-01-11 07:26:00,36.3,34.2,29.47,South,180,0.0,0.0,92,0.00,,,0.00,WUHU21623XXSP,2014-01-11 12:26:00,
2014-01-11 07:31:00,36.3,34.2,29.47,North,0,0.0,0.0,92,0.00,,,0.00,WUHU21623XXSP,2014-01-11 12:31:00,
2014-01-11 08:54:00,39.6,37.4,29.47,West,270,0.0,0.0,92,0.00,,,0.00,WUHU21623XXSP,2014-01-11 13:54:00,
2014-01-11 08:59:00,39.6,37.4,29.47,West,270,0.0,0.0,92,0.00,,,0.00,WUHU21623XXSP,2014-01-11 13:59:00,
2014-01-11 09:04:00,39.6,37.4,29.47,West,270,0.0,0.0,92,0.00,,,0.00,WUHU21623XXSP,2014-01-11 14:04:00,
2014-01-11 09:06:00,39.6,37.4,29.48,North,0,0.0,0.0,92,0.00,,,0.00,WUHU21623XXSP,2014-01-11 14:06:00,
2014-01-11 09:09:00,39.6,37.4,29.48,West,270,0.0,0.0,92,0.00,,,0.00,WUHU21623XXSP,2014-01-11 14:09:00,
2014-01-11 09:14:00,39.6,37.4,29.48,North,0,0.0,0.0,92,0.00,,,0.00,WUHU21623XXSP,2014-01-11 14:14:00,
2014-01-11 14:30:00,26.3,24.3,29.56,North,0,0.0,0.0,92,0.00,,,0.00,WUHU21623XXSP,2014-01-11 19:30:00,
2014-01-11 14:35:00,26.4,24.4,29.56,WNW,292,15.9,15.9,92,0.00,,,0.00,WUHU21623XXSP,2014-01-11 19:35:00,
2014-01-11 14:40:00,26.5,24.5,29.55,WNW,292,15.9,15.9,92,0.00,,,0.00,WUHU21623XXSP,2014-01-11 19:40:00,
2014-01-11 14:45:00,26.6,24.6,29.55,WNW,292,15.9,15.9,92,0.00,,,0.00,WUHU21623XXSP,2014-01-11 19:45:00,
2014-01-11 14:50:00,26.8,24.7,29.56,WNW,292,15.9,15.9,92,0.00,,,0.00,WUHU21623XXSP,2014-01-11 19:50:00,
2014-01-11 14:51:00,26.8,24.7,29.56,North,0,0.0,0.0,92,0.00,,,0.00,WUHU21623XXSP,2014-01-11 19:51:00,
2014-01-11 14:55:00,26.8,24.7,29.56,WNW,292,15.9,15.9,92,0.00,,,0.00,WUHU21623XXSP,2014-01-11 19:55:00,
2014-01-11 15:00:00,26.8,24.7,29.56,North,0,0.0,0.0,92,0.00,,,0.00,WUHU21623XXSP,2014-01-11 20:00:00,
2014-01-11 18:37:00,32.2,29.9,29.67,North,0,0.0,0.0,91,0.00,,,0.00,WUHU21623XXSP,2014-01-11 23:37:00,
2014-01-11 18:42:00,32.2,29.9,29.67,WNW,292,5.1,5.1,91,0.00,,,0.00,WUHU21623XXSP,2014-01-11 23:42:00,
2014-01-11 18:47:00,32.2,29.9,29.67,WNW,292,5.1,5.1,91,0.00,,,0.00,WUHU21623XXSP,2014-01-11 23:47:00,
2014-01-11 18:52:00,32.2,29.9,29.68,WNW,292,5.1,5.1,91,0.00,,,0.00,WUHU21623XXSP,2014-01-11 23:52:00,
2014-01-11 18:57:00,32.2,29.9,29.68,WNW,292,5.1,5.1,91,0.00,,,0.00,WUHU21623XXSP,2014-01-11 23:57:00,
2014-01-11 18:58:00,32.2,29.9,29.68,North,0,0.0,0.0,91,0.00,,,0.00,WUHU21623XXSP,2014-01-11 23:58:00,
2014-01-11 19:02:00,32.2,29.9,29.68,WNW,292,5.1,5.1,91,0.00,,,0.00,WUHU21623XXSP,2014-01-12 00:02:00,
2014-01-11 19:07:00,32.2,29.9,29.68,North,0,0.0,0.0,91,0.00,,,0.00,WUHU21623XXSP,2014-01-12 00:07:00,
2014-01-11 23:03:00,32.9,30.0,29.77,North,0,0.0,0.0,89,0.00,,,0.00,WUHU21623XXSP,2014-01-12 04:03:00,
2014-01-11 23:08:00,32.9,30.0,29.77,NNW,337,0.0,0.0,89,0.00,,,0.00,WUHU21623XXSP,2014-01-12 04:08:00,
2014-01-11 23:13:00,32.9,30.0,29.77,NNW,337,0.0,0.0,89,0.00,,,0.00,WUHU21623XXSP,2014-01-12 04:13:00,
2014-01-11 23:18:00,32.9,30.0,29.78,NNW,337,0.0,0.0,89,0.00,,,0.00,WUHU21623XXSP,2014-01-12 04:18:00,
2014-01-11 23:23:00,32.9,30.0,29.78,NNW,337,0.0,0.0,89,0.00,,,0.00,WUHU21623XXSP,2014-01-12 04:23:00,
2014-01-11 23:24:00,32.9,30.0,29.78,North,0,0.0,0.0,89,0.00,,,0.00,WUHU21623XXSP,2014-01-12 04:24:00,
2014-01-11 23:28:00,32.9,30.0,29.78,NNW,337,0.0,0.0,89,0.00,,,0.00,WUHU21623XXSP,2014-01-12 04:28:00,
2014-01-11 23:33:00,32.9,30.0,29.78,North,0,0.0,0.0,89,0.00,,,0.00,WUHU21623XXSP,2014-01-12 04:33:00,